User: anonymous   Login
Location: Unspecified
(0.0000°N, 0.0000°E)
Time: 10:46:28
(UTC+00:00)
Language:

OAO 2 - Orbit

View from above orbital plane
View from above orbital plane
View from above satellite
View from above satellite

Ground track
Ground track

The orbit data is extracted from the following two-line orbital elements,

1 03597U 68110A   21016.86053866  .00000032  00000-0  14066-4 0  9998
2 03597  34.9941 294.1939 0006335 277.5996  82.3975 14.45870483747102
Epoch (UTC): 16 January 2021 20:39:10
Eccentricity: 0.0006335
inclination: 34.9941°
perigee height: 734 km
apogee height: 743 km
right ascension of ascending node: 294.1939°
argument of perigee: 277.5996°
revolutions per day: 14.45870483
mean anomaly at epoch: 82.3975°
orbit number at epoch: 74710

The dashed part of the orbit path shows where the satellite is in the earth's shadow,  

DLR